Weather History for Tekamah, NE

Change the Weather History Date:

Wednesday, July 31, 2013

  Actual Average Record
Temperature  
Mean Temperature 70 °F -  
Max Temperature 87 °F 86 °F 105 °F (1955)
Min Temperature 57 °F 63 °F 50 °F (1960)
Cooling Degree Days 6    
Growing Degree Days 20 (Base 50)    
Moisture  
Dew Point 61 °F    
Average Humidity 81    
Maximum Humidity 97    
Minimum Humidity 48    
Precipitation  
Precipitation 0.00 in - - ()
Sea Level Pressure  
Sea Level Pressure 30.09 in    
Wind  
Wind Speed 1 mph (North)    
Max Wind Speed 7 mph    
Max Gust Speed -    
Visibility 4 miles    
Events Fog    
Averages and records for this station are not official NWS values.
T = Trace of Precipitation, MM = Missing Value Source: NWS Daily Summary

Daily Weather History Graph

Daily Weather History Graph

Search for Another Location

Airport:

Trip Planner

Search our weather history database for the weather conditions in past years. The results will help you decide how hot, cold, wet, or windy it might be!

Date:

Astronomy

Jul. 31, 2013 Rise Set
Actual Time 6:18 AM CDT 8:43 PM CDT
Civil Twilight 5:46 AM CDT 9:14 PM CDT
Nautical Twilight 5:07 AM CDT 9:53 PM CDT
Astronomical Twilight 4:23 AM CDT 10:37 PM CDT
Moon 1:14 AM CDT (7/31) 4:00 PM CDT (7/31)
Length of Visible Light 15h 28m
Length of Day
14h 25m
Waning Crescent, 31% of the Moon is Illuminated
Jul 31
Waning Crescent
Aug 6
New
Aug 14
First Quarter
Aug 20
Full
Aug 28
Last Quarter

Hourly Weather History & Observations

Time (CDT) Temp. Heat Index Dew Point Humidity Pressure Visibility Wind Dir Wind Speed Gust Speed Precip Events Conditions
12:54 AM 63.0 °F - 61.0 °F 93% 30.08 in 4.0 mi Calm Calm - N/A   Clear
1:54 AM 62.1 °F - 59.0 °F 90% 30.06 in 4.0 mi Calm Calm - N/A   Partly Cloudy
2:19 AM 60.8 °F - 57.2 °F 88% 30.09 in 5.0 mi Calm Calm - N/A   Mostly Cloudy
2:25 AM 60.8 °F - 57.2 °F 88% 30.09 in 1.8 mi Calm Calm - N/A   Mostly Cloudy
2:33 AM 60.8 °F - 57.2 °F 88% 30.10 in 0.2 mi Calm Calm - N/A Fog Fog
2:54 AM 59.0 °F - 57.0 °F 93% 30.08 in 0.5 mi Calm Calm - N/A Fog Fog
3:00 AM 59.0 °F - 57.2 °F 94% 30.10 in 1.2 mi Calm Calm - N/A   Scattered Clouds
3:03 AM 60.8 °F - 57.2 °F 88% 30.10 in 3.0 mi Calm Calm - N/A   Partly Cloudy
3:28 AM 59.0 °F - 57.2 °F 94% 30.11 in 1.8 mi Calm Calm - N/A   Clear
3:35 AM 59.0 °F - 57.2 °F 94% 30.10 in 2.5 mi Calm Calm - N/A   Partly Cloudy
3:40 AM 59.0 °F - 57.2 °F 94% 30.10 in 1.0 mi Calm Calm - N/A   Mist
3:54 AM 59.0 °F - 57.0 °F 93% 30.09 in 3.0 mi Calm Calm - N/A   Scattered Clouds
4:28 AM 59.0 °F - 57.2 °F 94% 30.11 in 2.5 mi Calm Calm - N/A   Clear
4:37 AM 59.0 °F - 57.2 °F 94% 30.11 in 3.0 mi Calm Calm - N/A   Clear
4:54 AM 60.1 °F - 57.9 °F 93% 30.07 in 2.0 mi East 3.5 mph - N/A   Clear
5:17 AM 60.8 °F - 59.0 °F 94% 30.10 in 3.0 mi Calm Calm - N/A   Clear
5:46 AM 60.8 °F - 57.2 °F 88% 30.11 in 3.0 mi Calm Calm - N/A   Partly Cloudy
5:54 AM 59.0 °F - 57.0 °F 93% 30.11 in 3.0 mi NW 4.6 mph - N/A   Partly Cloudy
6:05 AM 60.8 °F - 57.2 °F 88% 30.12 in 1.8 mi Calm Calm - N/A   Mostly Cloudy
6:41 AM 59.0 °F - 57.2 °F 94% 30.13 in 0.2 mi Calm Calm - N/A Fog Fog
6:54 AM 57.9 °F - 57.0 °F 97% 30.11 in 0.2 mi Calm Calm - N/A Fog Fog
7:54 AM 62.1 °F - 61.0 °F 96% 30.12 in 0.2 mi Calm Calm - N/A Fog Fog
8:43 AM 66.2 °F - 64.4 °F 94% 30.14 in 1.5 mi Calm Calm - N/A   Mostly Cloudy
8:54 AM 66.9 °F - 64.9 °F 93% 30.12 in 2.0 mi Calm Calm - N/A   Mostly Cloudy
9:05 AM 69.8 °F - 64.4 °F 83% 30.14 in 3.0 mi Calm Calm - N/A   Scattered Clouds
9:16 AM 69.8 °F - 64.4 °F 83% 30.14 in 2.5 mi Calm Calm - N/A   Haze
9:54 AM 73.0 °F - 66.0 °F 79% 30.11 in 2.5 mi Calm Calm - N/A   Haze
10:22 AM 75.2 °F - 66.2 °F 73% 30.13 in 3.0 mi South 3.5 mph - N/A   Haze
10:54 AM 75.0 °F - 64.9 °F 71% 30.11 in 4.0 mi Calm Calm - N/A   Haze
11:54 AM 78.1 °F - 64.9 °F 64% 30.11 in 5.0 mi Calm Calm - N/A   Haze
12:43 PM 80.6 °F 82.7 °F 66.2 °F 61% 30.12 in 6.0 mi Variable 4.6 mph - N/A   Haze
12:54 PM 81.0 °F 82.7 °F 64.9 °F 58% 30.09 in 7.0 mi Calm Calm - N/A   Partly Cloudy
1:54 PM 82.0 °F 83.4 °F 64.0 °F 54% 30.08 in 8.0 mi Calm Calm - N/A   Mostly Cloudy
2:54 PM 84.0 °F 85.4 °F 64.0 °F 51% 30.07 in 9.0 mi Calm Calm - N/A   Clear
3:54 PM 84.9 °F 86.1 °F 64.0 °F 49% 30.06 in 10.0 mi Calm Calm - N/A   Scattered Clouds
4:54 PM 82.9 °F 84.0 °F 63.0 °F 51% 30.04 in 10.0 mi Calm Calm - N/A   Partly Cloudy
5:54 PM 84.9 °F 85.9 °F 63.0 °F 48% 30.03 in 10.0 mi Calm Calm - N/A   Clear
6:54 PM 82.9 °F 84.6 °F 64.9 °F 54% 30.02 in 9.0 mi NNE 5.8 mph - N/A   Scattered Clouds
7:54 PM 82.0 °F 84.1 °F 66.0 °F 58% 30.03 in 9.0 mi NNE 6.9 mph - N/A   Scattered Clouds
8:54 PM 75.9 °F - 66.9 °F 74% 30.04 in 8.0 mi Calm Calm - N/A   Partly Cloudy
9:54 PM 72.0 °F - 64.9 °F 78% 30.05 in 7.0 mi NNW 4.6 mph - N/A   Clear
10:54 PM 66.9 °F - 63.0 °F 87% 30.07 in 7.0 mi NW 4.6 mph - N/A   Clear
11:54 PM 64.9 °F - 62.1 °F 90% 30.08 in 8.0 mi WNW 3.5 mph - N/A   Clear